{"data":{"norad_id":59343,"epoch":"2026-09-22T22:56:48.137280Z","epoch_age_seconds":48665,"freshness":"FRESH","line1":"1 59343U 24058A   26265.95611270  .00000010  00000+0  28531-4 0  9998","line2":"2 59343  98.8244 272.4557 0001977  92.6859 267.4540 14.13332379128551","mean_motion":14.13332379,"eccentricity":0.0001977,"inclination_deg":98.8244,"raan_deg":272.4557,"arg_perigee_deg":92.6859,"mean_anomaly_deg":267.454,"bstar":2.8531e-5,"rev_number":12855,"period_min":101.88686125049,"perigee_km":846.56215162865,"apogee_km":849.4193625438,"semimajor_km":7226.1277570862,"source":"CELESTRAK","updated_at":"2026-09-23T09:00:19.322505Z"}}